Flag for France Weather past 2 weeks in Dijon, France

Now
45 °F

Clear.


Feels Like: 43 °F
Forecast: 38 / 50 °F
Wind: 3 mph from South

Location: Dijon Airport

Current Time: Feb 28, 2015 at 1:58:59 PM

Latest Report: Feb 28, 2015 at 1:30 PM


Visibility: N/A

Pressure: 30.12 "Hg

Humidity: 46%

Dew point: 25 °F

Location of DijonLocation

Historic Weather in Dijon — Graph

°F

Dijon temperature yesterday

Maximum temperature yesterday: 45 °F (at 6:00 AM)
Minimum temperature yesterday: 32 °F (at 11:30 PM)
Average temperature yesterday: 41 °F

Past Weeks' High & Low Weather Summary

 TemperatureHumidityPressure
High55 °F (Feb 13, 3:30 PM)100% (Feb 14, 4:30 AM)30.66 "Hg (Feb 14, 4:30 AM)
Low25 °F (Feb 20, 4:00 AM)41% (Feb 20, 3:30 PM)29.56 "Hg (Feb 21, 4:30 AM)
Average40 °F84%30.02 "Hg
* Reported Feb 13 12:00 Noon — Feb 28 12:30 PM, Dijon, Weather by CustomWeather, © 2015

Note: Actual official high and low records may vary slightly from our data, if they occured in-between our weather recording intervals... More about our weather records

Advertising

Dijon weather history for previous 24 hours

 ConditionsComfort  
Time TempWeatherWind HumidityBarometerVisibility
12:30 PM
Sat, Feb 28
45 °FClear.3 mph49%30.15 "HgN/A
12:00 PM45 °FClear.3 mph49%30.18 "HgN/A
11:30 AM45 °FClear.2 mph57%30.18 "HgN/A
11:00 AM43 °FClear.No wind61%30.18 "HgN/A
10:30 AM41 °FClear.No wind66%30.18 "HgN/A
10:00 AM39 °FClear.No wind75%30.18 "HgN/A
9:30 AM36 °FClear.1 mph81%30.18 "HgN/A
9:00 AM34 °FClear.3 mph87%30.21 "HgN/A
8:30 AM30 °FClear.3 mph93%30.18 "HgN/A
8:00 AM27 °FClear.2 mph93%30.18 "HgN/A
7:30 AM27 °FClear.2 mph86%30.18 "HgN/A
7:00 AM28 °FClear.2 mph93%30.18 "HgN/A
6:30 AM28 °FClear.3 mph93%30.18 "HgN/A
6:00 AM28 °FClear.3 mph93%30.18 "HgN/A
5:30 AM30 °FClear.5 mph86%30.18 "HgN/A
5:00 AM30 °FClear.5 mph86%30.18 "HgN/A
4:30 AM28 °FClear.3 mph93%30.18 "HgN/A
4:00 AM28 °FClear.5 mph93%30.18 "HgN/A
3:30 AM28 °FClear.5 mph86%30.18 "HgN/A
3:00 AM28 °FClear.5 mph93%30.18 "HgN/A
2:30 AM28 °FClear.3 mph93%30.18 "HgN/A
2:00 AM28 °FClear.3 mph93%30.21 "HgN/A
1:30 AM28 °FClear.5 mph93%30.21 "HgN/A
1:00 AM28 °FClear.2 mph93%30.21 "HgN/A
12:30 AM28 °FClear.No wind93%30.21 "HgN/A
12:00 AM32 °FClear.No wind80%30.21 "HgN/A
11:30 PM
Fri, Feb 27
32 °FClear.2 mph80%30.21 "HgN/A
11:00 PM34 °FClear.No wind81%30.21 "HgN/A
10:30 PM34 °FClear.2 mph81%30.21 "HgN/A
10:00 PM34 °FClear.2 mph81%30.21 "HgN/A
9:30 PM36 °FClear.5 mph75%30.21 "HgN/A
9:00 PM36 °FClear.6 mph75%30.21 "HgN/A
8:30 PM36 °FClear.5 mph75%30.18 "HgN/A
8:00 PM37 °FClear.3 mph70%30.18 "HgN/A
7:30 PM41 °FClear.6 mph66%30.18 "HgN/A
7:00 PM41 °FClear.5 mph66%30.18 "HgN/A
6:30 PM41 °FClear.6 mph66%30.15 "HgN/A
6:00 PM41 °FClear.9 mph66%30.15 "HgN/A
5:30 PM41 °FClear.6 mph66%30.15 "HgN/A
5:00 PM41 °FClear.8 mph66%30.12 "HgN/A
4:30 PM41 °FMostly cloudy.8 mph70%30.12 "HgN/A
4:00 PM41 °FOvercast.8 mph70%30.12 "HgN/A
3:30 PM41 °FBroken clouds.12 mph76%30.09 "HgN/A
3:00 PM41 °FMostly cloudy.14 mph76%30.09 "HgN/A
2:30 PM43 °FMostly cloudy.14 mph71%30.07 "HgN/A
2:00 PM43 °FMostly cloudy.16 mph66%30.07 "HgN/A
1:30 PM45 °FMostly cloudy.16 mph66%30.07 "HgN/A
1:00 PM45 °FMostly cloudy.14 mph71%30.07 "HgN/A
Weather by CustomWeather, © 2015

See weather overviewHow to use our weather pages